Location: McFarlands Corners
(41.4117°N, 81.3382°W)
Time: 05:11:25
(UTC+00:00)

Tiros 1 - Pass Details

Date: 16 February 2026
Orbit: 618 x 649 km, 48.4° (Epoch: 5 March)

Event Time Altitude Azimuth Distance (km) Brightness Sun altitude
Rises 14:08:15 0° 225° (SW) 2,905 10.4 17.7°
Reaches altitude 10° 14:10:36 10° 220° (SW) 1,996 9.7 18.0°
Maximum altitude 14:15:04 52° 144° (SE) 771 8.6 18.7°
Drops below altitude 10° 14:19:30 10° 68° (ENE) 1,988 10.2 19.4°
Sets 14:21:51 0° 64° (ENE) 2,893 10.8 19.7°
